Lawrenceville, IL

11:29 AM CST on January 20, 2017 (GMT -0600)
Lawrenceville-Vincennes International

Weather History for KLWV - March, 2014

Change the Weather History Date:

Monday, March 3, 2014

  Actual Average Record
Temperature  
Mean Temperature 18 °F 40 °F  
Max Temperature 24 °F 50 °F 78 °F (1992)
Min Temperature 12 °F 31 °F 12 °F (2002)
Degree Days  
Heating Degree Days 47 24  
Month to date heating degree days 114 74  
Since 1 July heating degree days 4516 3749  
Cooling Degree Days 0 0  
Month to date cooling degree days 0 0  
Year to date cooling degree days 0 0  
Moisture  
Dew Point 6 °F    
Average Humidity 61    
Maximum Humidity 76    
Minimum Humidity 45    
Precipitation  
Precipitation 0.00 in 0.07 in 1.02 in (2008)
Month to date precipitation T 0.24  
Year to date precipitation 2.76 4.63  
Sea Level Pressure  
Sea Level Pressure 30.41 in    
Wind  
Wind Speed 12 mph (NNE)    
Max Wind Speed 22 mph    
Max Gust Speed 27 mph    
Visibility 10 miles    
Events      
T = Trace of Precipitation, MM = Missing Value Source: NWS Daily Summary

Daily Weather History Graph

Daily Weather History Graph

Search for Another Location

Airport or City:

Trip Planner

Search our weather history database for the weather conditions in past years. The results will help you decide how hot, cold, wet, or windy it might be!

Date:

Astronomy

Mar. 03, 2014 Rise Set
Actual Time 6:19 AM CST 5:45 PM CST
Civil Twilight 5:53 AM CST 6:12 PM CST
Nautical Twilight 5:22 AM CST 6:42 PM CST
Astronomical Twilight 4:51 AM CST 7:13 PM CST
Moon 7:29 AM CST (3/3) 8:45 PM CST (3/3)
Length of Visible Light 12h 18m
Length of Day
11h 25m
Waxing Crescent, 8% of the Moon is Illuminated
Mar 3
Waxing Crescent
Mar 8
First Quarter
Mar 16
Full
Mar 23
Last Quarter
Mar 30
New

Hourly Weather History & Observations

Time (CST) Temp. Windchill Dew Point Humidity Pressure Visibility Wind Dir Wind Speed Gust Speed Precip Events Conditions
12:53 AM 12.9 °F -3.9 °F 7.0 °F 77% 30.32 in 9.0 mi North 17.3 mph - N/A   Clear
1:53 AM 12.9 °F -3.9 °F 6.1 °F 74% 30.33 in 9.0 mi North 17.3 mph 25.3 mph N/A   Clear
2:53 AM 12.0 °F -5.6 °F 5.0 °F 73% 30.30 in 9.0 mi North 18.4 mph - N/A   Clear
3:53 AM 12.9 °F -3.9 °F 5.0 °F 71% 30.32 in 9.0 mi North 17.3 mph - N/A   Clear
4:53 AM 12.9 °F -4.4 °F 6.1 °F 74% 30.36 in 10.0 mi NNE 18.4 mph - N/A   Clear
5:53 AM 12.9 °F -2.2 °F 5.0 °F 71% 30.38 in 10.0 mi North 13.8 mph - N/A   Scattered Clouds
6:21 AM 12.9 °F -1.6 °F 5.0 °F 71% 30.37 in 10.0 mi North 12.7 mph - N/A   Mostly Cloudy
6:53 AM 12.9 °F -2.8 °F 5.0 °F 71% 30.41 in 8.0 mi North 15.0 mph - N/A   Mostly Cloudy
7:31 AM 12.9 °F -1.6 °F 5.0 °F 71% 30.41 in 9.0 mi North 12.7 mph - N/A   Scattered Clouds
7:53 AM 14.0 °F -0.8 °F 5.0 °F 67% 30.44 in 9.0 mi North 13.8 mph - N/A   Clear
8:53 AM 16.0 °F 2.9 °F 6.1 °F 65% 30.45 in 10.0 mi North 11.5 mph - N/A   Clear
9:53 AM 16.0 °F 1.7 °F 6.1 °F 65% 30.46 in 9.0 mi NNE 13.8 mph - N/A   Clear
10:53 AM 18.0 °F 4.2 °F 6.1 °F 60% 30.46 in 10.0 mi NNE 13.8 mph - N/A   Clear
11:53 AM 19.9 °F 6.7 °F 7.0 °F 57% 30.45 in 10.0 mi North 13.8 mph - N/A   Clear
12:53 PM 21.0 °F 7.1 °F 6.1 °F 53% 30.45 in 10.0 mi NNE 16.1 mph - N/A   Clear
1:53 PM 21.9 °F 9.8 °F 5.0 °F 48% 30.44 in 10.0 mi NNE 12.7 mph - N/A   Clear
2:53 PM 23.0 °F 11.1 °F 6.1 °F 48% 30.45 in 10.0 mi North 12.7 mph - N/A   Clear
3:53 PM 23.0 °F 11.1 °F 5.0 °F 46% 30.44 in 10.0 mi NNE 12.7 mph - N/A   Clear
4:53 PM 23.0 °F 11.7 °F 5.0 °F 46% 30.46 in 10.0 mi North 11.5 mph - N/A   Clear
5:53 PM 21.0 °F 11.4 °F 6.1 °F 53% 30.45 in 10.0 mi North 8.1 mph - N/A   Clear
6:53 PM 19.9 °F 10.1 °F 6.1 °F 55% 30.44 in 10.0 mi North 8.1 mph - N/A   Clear
7:53 PM 18.0 °F 8.7 °F 6.1 °F 60% 30.43 in 10.0 mi NNE 6.9 mph - N/A   Clear
8:53 PM 18.0 °F 8.7 °F 7.0 °F 62% 30.44 in 10.0 mi NNE 6.9 mph - N/A   Clear
9:53 PM 17.1 °F 7.6 °F 6.1 °F 62% 30.43 in 10.0 mi NE 6.9 mph - N/A   Clear
10:53 PM 17.1 °F 8.7 °F 6.1 °F 62% 30.41 in 10.0 mi ENE 5.8 mph - N/A   Clear
11:53 PM 16.0 °F 8.8 °F 6.1 °F 65% 30.39 in 10.0 mi ENE 4.6 mph - N/A   Clear